Regional Weather Roundup
Issued by NWS Grand Forks, ND

Home | Current Version | Previous Version | Text Only | Print | Product List | Glossary On
Versions: 1 2 3 4 5 6 7 8 9 10 11 12 13 14 15 16 17 18 19 20 21 22 23 24 25 26 27 28 29 30 31 32 33 34 35 36 37 38 39 40 41 42 43 44 45 46 47 48 49 50
000
ASUS43 KFGF 281031
RWRFGF
PRAIRIE TO PINES  WEATHER ROUNDUP
NATIONAL WEATHER SERVICE EASTERN NORTH DAKOTA/GRAND FORKS ND
500 AM CDT TUE MAR 28 2017

 **SATELLITE DATA USED TO AUGMENT SKY COVER AT AUTOMATED STATIONS**
 *****  WEATHER ACROSS EASTERN NORTH DAKOTA  *****

CITY           SKY/WX    TMP DP  RH WIND       PRES   REMARKS
GRAND FORKS    CLOUDY    34  33  96 N7        30.11R
GRAND FRKS AFB CLOUDY    33  33  99 N8        30.12R
DEVILS LAKE    CLOUDY    33  31  92 NE3       30.11R
FARGO          FOG       33  33 100 N5        30.08F VSB 1/4
WAHPETON ARPT    N/A     32  32 100 N6        30.09R VSB 1/4
$$

 ***** WEATHER ACROSS CENTRAL AND WESTERN NORTH DAKOTA  *****

CITY           SKY/WX    TMP DP  RH WIND       PRES   REMARKS
BISMARCK       FAIR      30  27  88 E3        30.05R
MINOT          CLOUDY    34  33  96 NE8       30.08R
JAMESTOWN      FOG       33  33 100 N5        30.08R VSB 1/4
MINOT AFB      CLOUDY    34  33  95 E12       30.07S
GARRISON         N/A     34  34 100 E6        30.04R
WILLISTON      CLOUDY    37  35  92 E8        30.03R
DICKINSON      FAIR      31  27  85 E9        29.98S WCI  23
HETTINGER      FAIR      30  27  88 CALM      30.01S
$$

 *****  OTHER AIRPORT OBSERVATIONS IN OUR AREA  *****

CITY           SKY/WX    TMP DP  RH WIND       PRES   REMARKS
WALHALLA       NOT AVBL
GRAFTON AIRPOR PTSUNNY   32  32 100 N9        30.15R WCI  24
VALLEY CITY AR FAIR      30  30 100 NE7       30.10R FOG     WCI  23
CANDO          NOT AVBL
CAVALIER APRT  FAIR      32  30  93 N12       30.15R WCI  23
GWINNER        FOG       32  32 100 MISG      30.09R VSB 0
SHEYENNE NWR     N/A     33  33 100 N6        29.95S
ROLLA          CLOUDY    32  32 100 NE9       30.13S WCI  24
 ***** THE ABOVE OBSERVATIONS ARE NON NWS ARE NOT QUALITY
       CONTROLLED AND MAY MIS-REPORT RAIN FOR SNOW...
$$

  *****  WEATHER ACROSS NORTHERN MINNESOTA  *****

CITY           SKY/WX    TMP DP  RH WIND       PRES   REMARKS
FLAG ISLAND    FAIR      34  28  80 N7        30.13R
WARROAD        FAIR      34  30  86 N3        30.13S
ROSEAU         FAIR      32  28  86 N5        30.13R
HALLOCK        FAIR      34  30  86 N5        30.13S
THF RVR FALLS  CLOUDY   N/A N/A N/A NE8       30.11S
BAUDETTE       FAIR      34  27  75 N3        30.10S
WASKISH        FAIR      30  28  93 CALM      30.09R
CROOKSTON      MOCLDY    32  32 100 N6        30.11S FOG
STEPHEN NDAWN    N/A     34  32  93 N6          N/A
GREENBUSH NDAW   N/A     34  30  86 VRB3        N/A
$$
  *****  WEATHER ACROSS CENTRAL AND WEST MINNESOTA  *****

CITY           SKY/WX    TMP DP  RH WIND       PRES   REMARKS
FOSSTON        FAIR      32  28  86 CALM      30.09S
BEMIDJI        FAIR      27  24  88 CALM      30.07S
PARK RAPIDS    FAIR      29  22  75 CALM      30.07R
ELBOW LAKE     FAIR      32  32  99 CALM      30.07R
WADENA         FAIR      27  27 100 CALM      30.07R
DETROIT LAKES  FAIR      32  32 100 CALM      30.08S
MOORHEAD       FOG       30  30 100 N5        30.10S VSB 1/4
FERGUS FALLS   FAIR      34  34 100 CALM      30.11S
MORRIS MN      FAIR      34  30  86 SE3       30.06R
STAPLES        FAIR      27  27 100 CALM      30.07R
$$
  *****  WEATHER ELSEWHERE ACROSS MINNESOTA  *****

CITY           SKY/WX    TMP DP  RH WIND       PRES   REMARKS
DULUTH         FAIR      27  24  89 CALM      30.08R
INTRNTL FALLS  FAIR      37  28  70 NE6       30.09R
ELY            MOCLDY    28  27  93 CALM      30.08S
CLOQUET        FAIR      27  25  93 CALM      30.08S
WHEATON        FOG       30  30 100 NW5       30.10R VSB<1/4
BRAINERD       FAIR      27  26  96 CALM      30.07F
HIBBING        MOCLDY    26  25  96 CALM      30.07S
ALEXANDRIA     FAIR      34  32  92 CALM      30.06S
SAINT CLOUD    FAIR      31  31 100 CALM      30.08R
MINNEAPOLIS    FAIR      38  34  85 CALM      30.08R
$$

  *****  WEATHER ACROSS SOUTH DAKOTA  *****

CITY           SKY/WX    TMP DP  RH WIND       PRES   REMARKS
SIOUX FALLS    FAIR      33  33 100 CALM      30.06R
BROOKINGS      MOCLDY    38  35  89 CALM      30.05S
WATERTOWN      FAIR      35  34  96 CALM      30.05S
HURON          FAIR      33  33 100 SE6       30.05R
SISSETON         N/A     30  29  96 N5        30.06R
ABERDEEN       FAIR      30  32 100 N6        30.07R WCI  24
MITCHELL       FAIR      36  35  96 SE8       30.05S
PIERRE         FAIR      38  33  82 E9        29.97F
MOBRIDGE       FAIR      35  28  75 CALM      30.00F
RAPID CITY     FAIR      40  33  76 N9        29.93F
$$

  *****  SOME WEATHER IN NEARBY STATES *****

CITY           SKY/WX    TMP DP  RH WIND       PRES   REMARKS
GLASGOW MT     FAIR      34  31  88 E9        29.99R
GREAT FALLS MT FAIR      33  25  72 SW13      30.06R WCI  24
CHEYENNE WY    CLOUDY    39  37  92 N13G18    29.86R
SCOTTSBLUFF NE LGT RAIN  47  43  86 NE8       29.88S
OMAHA NE       CLOUDY    38  33  82 N6        30.05S
DES MOINES IA  CLOUDY    47  41  80 CALM      30.04S
DAVENPORT IA   CLOUDY    47  44  90 N5        30.03R
CHICAGO IL     CLOUDY    41  35  79 N12G32    30.01R
EAU CLAIRE WI  FOG       29  28  96 CALM      30.08R VSB 1/4
LA CROSSE WI   MOCLDY    36  34  92 NW7       30.08R
$$

  *****  SOME NATIONAL WEATHER *****

CITY           SKY/WX    TMP DP  RH WIND       PRES   REMARKS
LA GUARDIA NY  CLOUDY    43  40  89 NE7       29.95F
RALEIGH NC     MOCLDY    64  55  72 S10       29.92F THUNDER
ATLANTA GA     LGT RAIN  62  61  96 SW3       29.97S
NEW ORLEANS LA MOCLDY    69  69 100 S3        29.95R
OKLAHOMA CITY  FAIR      49  46  90 E12       29.92F
ALBUQUERQUE NM CLOUDY    47  37  68 NW10      29.82S
SALT LAKE CITY MOCLDY    40  33  76 NW10      30.03R
LOS ANGELES CA FAIR      59  40  49 NE7       29.99R
BOISE ID       FAIR      37  31  78 W6        30.22R
SEATTLE WA     LGT RAIN  44  43  96 S10       30.24F
$$

*** WEATHER ACROSS MANITOBA...SASKATCHEWAN AND ONTARIO ***
                ***ONTARIO***

CITY           SKY/WX    TMP DP  RH WIND       PRES   REMARKS
GERALDTON      MOCLDY    27  23  86 N5        30.10R WCI  21
THUNDER BAY    MOCLDY    28  28 100 SW6       30.09R WCI  22
SIOUX LOOKOUT  CLEAR     27  21  80 N3        30.14R
TORONTO        MOCLDY    41  39  93 N8        29.89R
BIG TROUT LK   FLURRIES  14  10  85 N5        30.24R WCI   6
PICKLE LAKE    NOT AVBL
DRYDEN         CLEAR     28  23  80 NE10      30.12R WCI  19
KENORA         MOCLDY    30  23  74 NE8       30.13R WCI  23
$$
                *** MANITOBA***

CITY           SKY/WX    TMP DP  RH WIND       PRES   REMARKS
BRANDON        MOCLDY    27  25  93 E9        30.18R WCI  17
DAUPHIN        CLOUDY    28  23  80 E7        30.22S WCI  21
ISLAND LAKE    PTCLDY    10   7  85 N3        30.30R
PILOT MOUND      N/A     30  27  86 NE8         N/A  WCI  23
THE PAS        CLEAR     16  12  86 E2        30.26S
THOMPSON       CLEAR      1  -2  85 NE6       30.35R WCI -10
WINNIPEG       MOCLDY    30  27  86 NE9       30.18R WCI  22
LYNN LAKE      FOG        3   1  92 SE5       30.28F VSB 1   WCI  -6
CHURCHILL      FOG       -9 -13  84 NW9       30.44R VSB 3/8 WCI -27
GILLAM         FLURRIES   3   0  85 NW5       30.39R WCI  -6
$$
                ***SASKATCHEWAN***

CITY           SKY/WX    TMP DP  RH WIND       PRES   REMARKS
ESTEVAN        CLOUDY    32  32 100 E14G20    30.06F WCI  22
KINDERSLEY     CLOUDY    39  37  93 SE10      29.95R
LLOYDMINSTER   CLOUDY    32  32 100 E7        29.96S FOG
PRINCE ALBERT  CLOUDY    30  25  80 E8        30.11F WCI  23
REGINA         PTCLDY    32  30  93 E10       30.07S WCI  24
YORKTON        CLOUDY    30  27  86 E8        30.14F WCI  23
N. BATTLEFORD  LGT RAIN  34 N/A N/A SE18      30.03S WCI  23
LA RONGE       CLEAR     12  10  92 NE7       30.16S WCI   2
SASKATOON      CLOUDY    34  32  93 SE7       30.08R
SWIFT CURRENT  CLOUDY    34  30  86 SE7       29.98S
$$
NOTE: THESE ARE AUTOMATED STATIONS WITH LIMITED QUALITY CONTROL
      "FAIR" INDICATES FEW OR NO CLOUDS BELOW 12,000 FEET WITH NO
      SIGNIFICANT WEATHER AND/OR OBSTRUCTIONS TO VISIBILITY.
      SKY/WX - SKY CONDITION AND SIGNIFICANT WEATHER.
      TMP - AIR TEMPERATURE.    DP   - DEWPOINT TEMPERATURE.
      RH  - RELATIVE HUMIDITY.  PRES - PRESSURE.
      HX  - HEAT INDEX.         WCI  - WIND CHILL INDEX.
$



USA.gov is the U.S. government's official web portal to all federal, state and local government web resources and services.